Location: Arbon
(43.0005°N, 0.7472°E)
Time: 20:58:07
(UTC+00:00)

Altair - Pass Details

Date: 29 November 2020
Orbit: 1501 x 1682 km, 47.2° (Epoch: 26 January)

Event Time Altitude Azimuth Distance (km) Brightness Sun altitude
Rises 18:07:57 0° 192° (SSW) 4,766 10.4 -18.5°
Reaches altitude 10° 18:11:47 10° 180° (S) 3,755 9.7 -19.2°
Maximum altitude 18:18:58 25° 130° (SE) 2,713 8.4 -20.5°
Enters shadow 18:20:55 23° 112° (ESE) 2,792 8.4 -20.8°
Drops below altitude 10° 18:26:00 10° 80° (E) 3,677 - -21.8°
Sets 18:29:40 0° 68° (ENE) 4,648 - -22.4°
